| time (UTC) | temp C | wind direction | speed KPH | gust KPH | rain 1hr cm | rain 24hr cm | rain mn cm | humidity % | barometer mb |
| 20260504222439 | 15 | 93 | 12.9 | 16.1 | 0.00 | 0.00 | 0.00 | 34 | 1011.3 |
| 20260504220439 | 15 | 117 | 11.3 | 12.9 | 0.00 | 0.00 | 0.00 | 35 | 1011.4 |
| 20260504213939 | 16 | 107 | 14.5 | 16.1 | 0.00 | 0.00 | 0.00 | 33 | 1011.6 |
| 20260504211939 | 16 | 101 | 12.9 | 17.7 | 0.00 | 0.00 | 0.00 | 33 | 1011.7 |
| 20260504211439 | 16 | 86 | 14.5 | 16.1 | 0.00 | 0.00 | 0.00 | 33 | 1011.8 |
| 20260504210939 | 16 | 101 | 12.9 | 16.1 | 0.00 | 0.00 | 0.00 | 33 | 1011.9 |
| 20260504204439 | 16 | 105 | 12.9 | 16.1 | 0.00 | 0.00 | 0.00 | 34 | 1012.0 |
| 20260504202943 | 15 | 103 | 11.3 | 16.1 | 0.00 | 0.00 | 0.00 | 36 | 1012.0 |
| 20260504200939 | 14 | 128 | 9.7 | 11.3 | 0.00 | 0.00 | 0.00 | 40 | 1012.2 |
| 20260504194939 | 15 | 127 | 8.0 | 9.7 | 0.00 | 0.00 | 0.00 | 39 | 1012.2 |
| 20260504194439 | 15 | 127 | 11.3 | 12.9 | 0.00 | 0.00 | 0.00 | 39 | 1012.1 |
| 20260504193939 | 15 | 130 | 9.7 | 11.3 | 0.00 | 0.00 | 0.00 | 40 | 1012.2 |
| 20260504193439 | 15 | 130 | 8.0 | 9.7 | 0.00 | 0.00 | 0.00 | 40 | 1012.2 |
| 20260504192939 | 15 | 130 | 8.0 | 9.7 | 0.00 | 0.00 | 0.00 | 40 | 1012.2 |
| 20260504192439 | 15 | 130 | 8.0 | 8.0 | 0.00 | 0.00 | 0.00 | 39 | 1012.2 |
| 20260504191939 | 15 | 130 | 9.7 | 11.3 | 0.00 | 0.00 | 0.00 | 39 | 1012.2 |
| 20260504191439 | 15 | 130 | 8.0 | 11.3 | 0.00 | 0.00 | 0.00 | 40 | 1012.2 |
| 20260504190939 | 15 | 130 | 8.0 | 9.7 | 0.00 | 0.00 | 0.00 | 39 | 1012.2 |
| 20260504190439 | 16 | 131 | 8.0 | 9.7 | 0.00 | 0.00 | 0.00 | 39 | 1012.1 |
| 20260504184939 | 16 | 133 | 9.7 | 9.7 | 0.00 | 0.00 | 0.00 | 40 | 1012.1 |
| 20260504184442 | 16 | 133 | 8.0 | 9.7 | 0.00 | 0.00 | 0.00 | 40 | 1012.0 |
| 20260504183939 | 16 | 134 | 8.0 | 9.7 | 0.00 | 0.00 | 0.00 | 39 | 1012.0 |
| 20260504183439 | 16 | 134 | 9.7 | 11.3 | 0.00 | 0.00 | 0.00 | 39 | 1012.0 |
| 20260504182939 | 16 | 134 | 9.7 | 12.9 | 0.00 | 0.00 | 0.00 | 40 | 1012.0 |
| 20260504182439 | 16 | 136 | 8.0 | 9.7 | 0.00 | 0.00 | 0.00 | 40 | 1012.0 |
| 20260504181942 | 16 | 136 | 8.0 | 8.0 | 0.00 | 0.00 | 0.00 | 39 | 1012.0 |
| 20260504180939 | 16 | 137 | 9.7 | 9.7 | 0.00 | 0.00 | 0.00 | 39 | 1011.9 |
| 20260504180439 | 16 | 138 | 9.7 | 11.3 | 0.00 | 0.00 | 0.00 | 39 | 1011.9 |
| 20260504175939 | 16 | 138 | 8.0 | 9.7 | 0.00 | 0.00 | 0.00 | 39 | 1011.9 |
| 20260504175439 | 17 | 142 | 9.7 | 9.7 | 0.00 | 0.00 | 0.00 | 40 | 1011.9 |
| 20260504174939 | 17 | 144 | 6.4 | 8.0 | 0.00 | 0.00 | 0.00 | 40 | 1011.9 |
| 20260504174439 | 17 | 144 | 8.0 | 8.0 | 0.00 | 0.00 | 0.00 | 39 | 1011.9 |
| 20260504173939 | 17 | 144 | 6.4 | 8.0 | 0.00 | 0.00 | 0.00 | 38 | 1011.8 |
| 20260504173439 | 18 | 144 | 9.7 | 9.7 | 0.00 | 0.00 | 0.00 | 37 | 1011.7 |
| 20260504172439 | 19 | 145 | 8.0 | 9.7 | 0.00 | 0.00 | 0.00 | 37 | 1011.8 |
| 20260504171939 | 19 | 145 | 6.4 | 6.4 | 0.00 | 0.00 | 0.00 | 38 | 1011.8 |
| 20260504170939 | 20 | 144 | 8.0 | 9.7 | 0.00 | 0.00 | 0.00 | 37 | 1011.7 |
| 20260504170439 | 20 | 144 | 6.4 | 8.0 | 0.00 | 0.00 | 0.00 | 37 | 1011.7 |
| 20260504160439 | 21 | 144 | 9.7 | 14.5 | 0.00 | 0.00 | 0.00 | 35 | 1011.9 |
| 20260504150939 | 22 | 148 | 12.9 | 16.1 | 0.00 | 0.00 | 0.00 | 34 | 1012.0 |
| 20260504150439 | 22 | 129 | 17.7 | 19.3 | 0.00 | 0.00 | 0.00 | 34 | 1012.0 |
| 20260504140939 | 24 | 148 | 12.9 | 16.1 | 0.00 | 0.00 | 0.00 | 34 | 1012.4 |
| 20260504140439 | 23 | 215 | 9.7 | 12.9 | 0.00 | 0.00 | 0.00 | 32 | 1012.5 |
| 20260504130439 | 22 | 182 | 11.3 | 17.7 | 0.00 | 0.00 | 0.00 | 31 | 1012.9 |
| 20260504100439 | 19 | 155 | 11.3 | 14.5 | 0.00 | 0.00 | 0.00 | 38 | 1014.7 |
| 20260504081939 | 17 | 133 | 8.0 | 9.7 | 0.00 | 0.00 | 0.00 | 39 | 1014.7 |
| 20260504081439 | 16 | 112 | 8.0 | 12.9 | 0.00 | 0.00 | 0.00 | 39 | 1014.6 |
| 20260504080439 | 15 | 129 | 11.3 | 14.5 | 0.00 | 0.00 | 0.00 | 41 | 1014.5 |
| 20260504050439 | 11 | 114 | 9.7 | 14.5 | 0.00 | 0.00 | 0.00 | 47 | 1014.0 |
| 20260504041939 | 8 | 110 | 9.7 | 12.9 | 0.00 | 0.00 | 0.00 | 50 | 1013.9 |
| 20260504040939 | 9 | 110 | 6.4 | 6.4 | 0.00 | 0.00 | 0.00 | 48 | 1014.0 |
| 20260504040439 | 8 | 128 | 8.0 | 12.9 | 0.00 | 0.00 | 0.00 | 48 | 1014.1 |
| 20260504035939 | 8 | 135 | 6.4 | 8.0 | 0.00 | 0.00 | 0.00 | 48 | 1014.1 |
| 20260504033439 | 8 | 125 | 16.1 | 19.3 | 0.00 | 0.00 | 0.00 | 51 | 1013.8 |
| 20260504032939 | 8 | 114 | 12.9 | 16.1 | 0.00 | 0.00 | 0.00 | 50 | 1013.8 |
| 20260504032439 | 7 | 117 | 11.3 | 17.7 | 0.00 | 0.00 | 0.00 | 50 | 1013.9 |
| 20260504031439 | 7 | 138 | 8.0 | 8.0 | 0.00 | 0.00 | 0.00 | 51 | 1014.1 |
| 20260504030938 | 7 | 139 | 4.8 | 6.4 | 0.00 | 0.00 | 0.00 | 49 | 1014.2 |
| 20260504030439 | 7 | 139 | 4.8 | 4.8 | 0.00 | 0.00 | 0.00 | 48 | 1014.2 |
| 20260504025939 | 7 | 139 | 4.8 | 6.4 | 0.00 | 0.00 | 0.00 | 48 | 1014.2 |
| 20260504023939 | 8 | 139 | 6.4 | 8.0 | 0.00 | 0.00 | 0.00 | 46 | 1014.2 |
| 20260504023439 | 9 | 139 | 4.8 | 8.0 | 0.00 | 0.00 | 0.00 | 46 | 1014.2 |
| 20260504015939 | 9 | 157 | 8.0 | 9.7 | 0.00 | 0.00 | 0.00 | 45 | 1014.1 |
| 20260504015439 | 10 | 158 | 9.7 | 11.3 | 0.00 | 0.00 | 0.00 | 44 | 1014.1 |
| 20260504013938 | 10 | 148 | 12.9 | 14.5 | 0.00 | 0.00 | 0.00 | 44 | 1014.0 |
| 20260504012938 | 10 | 145 | 12.9 | 17.7 | 0.00 | 0.00 | 0.00 | 43 | 1013.9 |
| 20260504012439 | 10 | 140 | 17.7 | 24.1 | 0.00 | 0.00 | 0.00 | 43 | 1013.9 |
| 20260504011938 | 10 | 142 | 14.5 | 17.7 | 0.00 | 0.00 | 0.00 | 44 | 1013.9 |
| 20260504011439 | 10 | 141 | 17.7 | 20.9 | 0.00 | 0.00 | 0.00 | 43 | 1013.9 |
| 20260504010938 | 10 | 148 | 14.5 | 16.1 | 0.00 | 0.00 | 0.00 | 43 | 1013.9 |
| 20260504010438 | 10 | 145 | 14.5 | 17.7 | 0.00 | 0.00 | 0.00 | 43 | 1014.0 |
| 20260504005939 | 10 | 142 | 16.1 | 17.7 | 0.00 | 0.00 | 0.00 | 43 | 1014.0 |
| 20260504004938 | 10 | 141 | 16.1 | 17.7 | 0.00 | 0.00 | 0.00 | 43 | 1014.0 |
| 20260504003939 | 10 | 144 | 14.5 | 17.7 | 0.00 | 0.00 | 0.00 | 43 | 1014.1 |
| 20260504001938 | 10 | 134 | 16.1 | 17.7 | 0.00 | 0.00 | 0.00 | 42 | 1014.2 |
| 20260504001439 | 10 | 141 | 12.9 | 16.1 | 0.00 | 0.00 | 0.00 | 42 | 1014.2 |
| 20260504000938 | 10 | 140 | 14.5 | 17.7 | 0.00 | 0.00 | 0.00 | 41 | 1014.2 |
| 20260504000439 | 10 | 133 | 16.1 | 19.3 | 0.00 | 0.00 | 0.00 | 41 | 1014.2 |
| 20260503235939 | 10 | 139 | 16.1 | 17.7 | 0.00 | 0.00 | 0.00 | 41 | 1014.3 |
| 20260503235438 | 10 | 138 | 17.7 | 22.5 | 0.00 | 0.00 | 0.00 | 41 | 1014.3 |
| 20260503234938 | 10 | 136 | 17.7 | 19.3 | 0.00 | 0.00 | 0.00 | 42 | 1014.3 |
| 20260503232939 | 10 | 146 | 14.5 | 19.3 | 0.00 | 0.00 | 0.00 | 42 | 1014.4 |
| 20260503225938 | 10 | 156 | 14.5 | 16.1 | 0.00 | 0.00 | 0.00 | 41 | 1014.6 |
| 20260503223938 | 11 | 148 | 16.1 | 17.7 | 0.00 | 0.00 | 0.00 | 41 | 1014.7 |
| 20260503223438 | 11 | 144 | 14.5 | 16.1 | 0.00 | 0.00 | 0.00 | 41 | 1014.7 |